Find Starlink 33848

NORAD ID: 63705 Int'l Des: 2025-087 Owner: SPXS Country: US Constellation: starlink operational
LEOCIRCULAR

Current View

Loading 3D Globe...

About Starlink 33848

Starlink 33848 (NORAD 63705) is a starlink constellation satellite (v2 mini) launched Apr 28, 2025 by SPXS of US. It operates in LEO, CIRCULAR orbit with a mass of 575.00 kg.

About Starlink 33848

Description loading...

Upcoming Passes

Passes for default location (London). Set your location on the main map for personalized predictions.

Altitude History

Loading altitude history...

Two-Line Element Set

1 63705U 25087J 26169.15582469 .00015681 00000-0 54026-3 0 9998
2 63705 53.1587 112.7471 0001442 129.4668 230.6460 15.30210789 64571
Epoch: Jun 18, 2026 • Age: 21 hours

Current Status

Altitude 477.2 km
Velocity 7.63 km/s
Sub-Earth Point 37.44°N, 23.65°W
Launch Date Apr 28, 2025
Age 1.1 years
Type internet

Technical Details

Classification Payload
Mass 575.00 kg
Dry Mass 530.00 kg
Total Mass 575.00 kg
Length 0.30 m
Diameter 4.10 m
Span 29.00 m
Shape Box + pan
Manufacturer SPXS
Bus Type Starlink V2MO
Phase Status In Orbit
Owner/State SPXS/US

Most Searched